Wallops Island, VA

9:03 AM EST on December 07, 2019 (GMT -0500)
Wallops Flight Facility

Weather History for KWAL - October, 2019

Change the Weather History Date:

Sunday, October 27, 2019

  Actual Average Record
Temperature  
Mean Temperature 69 °F 56 °F  
Max Temperature 78 °F 65 °F 79 °F (1984)
Min Temperature 60 °F 47 °F 33 °F (1990)
Degree Days  
Heating Degree Days 0    
Month to date heating degree days 102  
Since 1 July heating degree days 111  
Cooling Degree Days 4    
Month to date cooling degree days 57  
Year to date cooling degree days 1804  
Growing Degree Days 19 (Base 50)    
Moisture  
Dew Point 66 °F    
Average Humidity 96    
Maximum Humidity 100    
Minimum Humidity 74    
Precipitation  
Precipitation 0.07 in 0.11 in 0.89 in (2010)
Month to date precipitation 7.32 2.73  
Year to date precipitation 41.65 34.10  
Sea Level Pressure  
Sea Level Pressure 29.90 in    
Wind  
Wind Speed 12 mph ()    
Max Wind Speed 26 mph    
Max Gust Speed 34 mph    
Visibility 9.0 miles    
Events Rain    
T = Trace of Precipitation, MM = Missing Value Source: Averaged Metar Reports

Daily Weather History Graph

Daily Weather History Graph

Search for Another Location

Airport or City:

Astronomy

Oct. 27, 2019 Rise Set
Actual Time 7:22 AM EDT 6:08 PM EDT
Civil Twilight 6:55 AM EDT 6:35 PM EDT
Nautical Twilight 6:24 AM EDT 7:06 PM EDT
Astronomical Twilight 5:53 AM EDT 7:37 PM EDT
Moon 6:29 AM EDT (10/27) 6:15 PM EDT (10/27)
Length of Visible Light 11h 40m
Length of Day
10h 46m
Waning Crescent, 0% of the Moon is Illuminated
Oct 27
Waning Crescent
Oct 27
New
Nov 4
First Quarter
Nov 12
Full
Nov 19
Last Quarter

Hourly Weather History & Observations

Time (EDT) Temp. Dew Point Humidity Pressure Visibility Wind Dir Wind Speed Gust Speed Precip Events Conditions
12:54 AM 63.0 °F 60.1 °F 90% 30.09 in 10.0 mi East 9.2 mph - N/A   Clear
1:54 AM 64.0 °F 61.0 °F 90% 30.07 in 10.0 mi ESE 10.4 mph - N/A   Mostly Cloudy
2:54 AM 64.0 °F 62.1 °F 93% 30.04 in 10.0 mi ESE 15.0 mph - 0.00 in Rain Light Rain
3:54 AM 64.0 °F 63.0 °F 96% 30.01 in 10.0 mi ESE 12.7 mph 20.7 mph 0.00 in   Overcast
4:23 AM 64.9 °F 63.0 °F 93% 30.01 in 10.0 mi ESE 12.7 mph - N/A   Overcast
4:30 AM 64.4 °F 64.4 °F 100% 30.00 in 10.0 mi ESE 11.5 mph - N/A   Overcast
4:54 AM 64.9 °F 64.0 °F 97% 29.98 in 10.0 mi ESE 12.7 mph - N/A   Overcast
5:42 AM 64.9 °F 64.0 °F 97% 29.97 in 10.0 mi SE 13.8 mph - 0.00 in   Overcast
5:54 AM 64.9 °F 64.9 °F 100% 29.96 in 10.0 mi SE 11.5 mph - 0.00 in   Overcast
6:40 AM 66.0 °F 64.9 °F 96% 29.95 in 10.0 mi SSE 16.1 mph - N/A   Overcast
6:54 AM 66.0 °F 66.0 °F 100% 29.94 in 10.0 mi SSE 12.7 mph 18.4 mph N/A   Overcast
7:06 AM 66.0 °F 66.0 °F 100% 29.94 in 10.0 mi SSE 15.0 mph 20.7 mph N/A   Overcast
7:14 AM 66.0 °F 66.0 °F 100% 29.93 in 10.0 mi SSE 16.1 mph - N/A   Overcast
7:32 AM 64.9 °F 64.9 °F 100% 29.92 in 10.0 mi SSE 12.7 mph - N/A   Overcast
7:46 AM 64.4 °F 64.4 °F 100% 29.92 in 9.0 mi SSE 12.7 mph - N/A   Overcast
7:54 AM 64.9 °F 64.9 °F 100% 29.91 in 8.0 mi SSE 11.5 mph - N/A   Overcast
8:23 AM 66.0 °F 66.0 °F 100% 29.91 in 8.0 mi SSE 12.7 mph 20.7 mph 0.00 in Rain Light Rain
8:54 AM 66.9 °F 66.9 °F 100% 29.90 in 5.0 mi South 13.8 mph 20.7 mph 0.03 in Rain Light Rain
9:54 AM 68.0 °F 68.0 °F 100% 29.88 in 10.0 mi South 20.7 mph 27.6 mph 0.01 in   Overcast
10:16 AM 68.0 °F 68.0 °F 100% 29.87 in 10.0 mi South 19.6 mph 28.8 mph N/A   Overcast
10:38 AM 69.1 °F 69.1 °F 100% 29.87 in 10.0 mi South 17.3 mph 25.3 mph 0.00 in Rain Light Rain
10:54 AM 68.0 °F 68.0 °F 100% 29.86 in 9.0 mi SSW 17.3 mph - 0.00 in   Overcast
11:04 AM 68.0 °F 68.0 °F 100% 29.86 in 8.0 mi SSW 17.3 mph 27.6 mph 0.00 in Rain Light Rain
11:16 AM 68.0 °F 68.0 °F 100% 29.86 in 8.0 mi SSW 16.1 mph 26.5 mph 0.00 in   Overcast
11:54 AM 69.1 °F 69.1 °F 100% 29.84 in 7.0 mi South 24.2 mph 31.1 mph 0.00 in Rain Light Rain
12:19 PM 68.0 °F 68.0 °F 100% 29.83 in 5.0 mi South 17.3 mph 27.6 mph 0.02 in Rain Light Rain
12:54 PM 69.1 °F 69.1 °F 100% 29.81 in 7.0 mi SSW 23.0 mph 34.5 mph 0.02 in   Overcast
1:03 PM 70.0 °F 70.0 °F 100% 29.81 in 6.0 mi South 23.0 mph 28.8 mph 0.00 in Rain Light Rain
1:54 PM 69.1 °F 69.1 °F 100% 29.78 in 6.0 mi South 19.6 mph - 0.00 in   Overcast
2:38 PM 69.1 °F 69.1 °F 100% 29.78 in 7.0 mi SW 9.2 mph - 0.01 in Rain Light Rain
2:54 PM 71.1 °F 71.1 °F 100% 29.78 in 8.0 mi South 6.9 mph - 0.01 in   Overcast
3:17 PM 71.1 °F 71.1 °F 100% 29.78 in 8.0 mi South 8.1 mph - N/A   Overcast
3:44 PM 72.0 °F 71.1 °F 97% 29.78 in 8.0 mi SSW 6.9 mph - N/A   Overcast
3:54 PM 77.0 °F 72.0 °F 84% 29.77 in 10.0 mi SW 11.5 mph 19.6 mph N/A   Mostly Cloudy
4:54 PM 78.1 °F 70.0 °F 76% 29.78 in 10.0 mi WSW 12.7 mph 19.6 mph N/A   Clear
5:54 PM 73.9 °F 69.1 °F 85% 29.82 in 10.0 mi West 5.8 mph - N/A   Clear
6:54 PM 70.0 °F 66.9 °F 90% 29.85 in 10.0 mi WSW 4.6 mph - N/A   Clear
7:54 PM 68.0 °F 66.0 °F 93% 29.87 in 10.0 mi West 3.5 mph - N/A   Clear
8:54 PM 66.0 °F 64.9 °F 96% 29.89 in 10.0 mi WSW 5.8 mph - N/A   Clear
9:54 PM 66.0 °F 64.0 °F 93% 29.91 in 10.0 mi WNW 6.9 mph - N/A   Clear
10:54 PM 64.9 °F 60.1 °F 84% 29.94 in 10.0 mi NW 6.9 mph - N/A   Clear
11:54 PM 62.1 °F 55.0 °F 78% 29.95 in 10.0 mi NW 6.9 mph - N/A   Clear